Mineral Point, WI

7:43 AM CDT on September 21, 2017 (GMT -0500)
Iowa County

Weather History for KMRJ - January, 2013

Change the Weather History Date:

Sunday, January 6, 2013

  Actual Average (KLNR) Record (KLNR)
Temperature  
Mean Temperature 20 °F -  
Max Temperature 26 °F 26 °F 48 °F (2012)
Min Temperature 14 °F 12 °F -18 °F (2014)
Degree Days  
Heating Degree Days 45    
Moisture  
Dew Point 16 °F    
Average Humidity 75    
Maximum Humidity 86    
Minimum Humidity 64    
Precipitation  
Precipitation 0.00 in - - ()
Sea Level Pressure  
Sea Level Pressure 30.10 in    
Wind  
Wind Speed 10 mph (West)    
Max Wind Speed 16 mph    
Max Gust Speed 21 mph    
Visibility 10 miles    
Events      
Averages and records for this station are not official NWS values.
T = Trace of Precipitation, MM = Missing Value Source: NWS Daily Summary

Daily Weather History Graph

Daily Weather History Graph

Search for Another Location

Airport or City:

Trip Planner

Search our weather history database for the weather conditions in past years. The results will help you decide how hot, cold, wet, or windy it might be!

Date:

Astronomy

Jan. 06, 2013 Rise Set
Actual Time 7:31 AM CST 4:42 PM CST
Civil Twilight 6:59 AM CST 5:14 PM CST
Nautical Twilight 6:24 AM CST 5:49 PM CST
Astronomical Twilight 5:50 AM CST 6:24 PM CST
Moon 1:43 AM CST (1/6) 12:12 PM CST (1/6)
Length of Visible Light 10h 14m
Length of Day
9h 10m
Waning Crescent, 33% of the Moon is Illuminated
Jan 6
Waning Crescent
Jan 11
New
Jan 18
First Quarter
Jan 26
Full
Feb 3
Last Quarter

Hourly Weather History & Observations

Time (CST) Temp. Windchill Dew Point Humidity Pressure Visibility Wind Dir Wind Speed Gust Speed Precip Events Conditions
12:15 AM 26.6 °F 14.7 °F 19.4 °F 74% 29.87 in 10.0 mi West 15.0 mph - N/A   Clear
12:35 AM 26.6 °F 14.7 °F 19.4 °F 74% 29.87 in 10.0 mi West 15.0 mph - N/A   Scattered Clouds
12:55 AM 26.6 °F 16.2 °F 19.4 °F 74% 29.88 in 10.0 mi West 11.5 mph 18.4 mph N/A   Mostly Cloudy
1:15 AM 26.6 °F 15.2 °F 19.4 °F 74% 29.89 in 10.0 mi West 13.8 mph - N/A   Overcast
1:35 AM 26.6 °F 15.7 °F 19.4 °F 74% 29.89 in 10.0 mi WNW 12.7 mph - N/A   Overcast
1:55 AM 24.8 °F 14.6 °F 19.4 °F 80% 29.90 in 10.0 mi WNW 10.4 mph - N/A   Mostly Cloudy
2:15 AM 24.8 °F 14.0 °F 17.6 °F 74% 29.90 in 10.0 mi WNW 11.5 mph - N/A   Mostly Cloudy
2:35 AM 24.8 °F 15.3 °F 17.6 °F 74% 29.91 in 10.0 mi WNW 9.2 mph - N/A   Overcast
2:55 AM 23.0 °F 11.7 °F 17.6 °F 80% 29.92 in 10.0 mi WNW 11.5 mph 16.1 mph N/A   Scattered Clouds
3:15 AM 23.0 °F 13.1 °F 17.6 °F 80% 29.93 in 10.0 mi WNW 9.2 mph - N/A   Clear
3:35 AM 21.2 °F 11.7 °F 15.8 °F 80% 29.94 in 10.0 mi WNW 8.1 mph - N/A   Clear
3:55 AM 21.2 °F 12.6 °F 15.8 °F 80% 29.95 in 10.0 mi WNW 6.9 mph - N/A   Clear
4:15 AM 21.2 °F 13.6 °F 14.0 °F 74% 29.95 in 10.0 mi WNW 5.8 mph - N/A   Clear
4:35 AM 21.2 °F 13.6 °F 14.0 °F 74% 29.95 in 10.0 mi WNW 5.8 mph - N/A   Clear
4:55 AM 21.2 °F 12.6 °F 14.0 °F 74% 29.96 in 10.0 mi WNW 6.9 mph - N/A   Clear
5:15 AM 21.2 °F 13.6 °F 14.0 °F 74% 29.97 in 10.0 mi WNW 5.8 mph - N/A   Clear
5:35 AM 21.2 °F 12.6 °F 14.0 °F 74% 29.97 in 10.0 mi West 6.9 mph - N/A   Mostly Cloudy
5:55 AM 21.2 °F 10.1 °F 15.8 °F 80% 29.98 in 10.0 mi West 10.4 mph - N/A   Overcast
6:15 AM 19.4 °F 7.9 °F 14.0 °F 80% 30.00 in 10.0 mi West 10.4 mph - N/A   Mostly Cloudy
6:35 AM 21.2 °F 10.1 °F 14.0 °F 74% 30.01 in 10.0 mi WNW 10.4 mph - N/A   Mostly Cloudy
6:55 AM 21.2 °F 11.7 °F 15.8 °F 80% 30.02 in 10.0 mi West 8.1 mph - N/A   Overcast
7:15 AM 21.2 °F 10.9 °F 15.8 °F 80% 30.02 in 10.0 mi West 9.2 mph - N/A   Overcast
7:35 AM 21.2 °F 11.7 °F 17.6 °F 86% 30.04 in 10.0 mi WNW 8.1 mph - N/A   Overcast
7:55 AM 21.2 °F 11.7 °F 17.6 °F 86% 30.06 in 10.0 mi WNW 8.1 mph - N/A   Overcast
8:15 AM 21.2 °F 16.4 °F 15.8 °F 80% 30.06 in 10.0 mi WNW 3.5 mph - N/A   Mostly Cloudy
8:35 AM 21.2 °F 12.6 °F 17.6 °F 86% 30.07 in 10.0 mi WNW 6.9 mph - N/A   Clear
8:55 AM 21.2 °F 11.7 °F 17.6 °F 86% 30.08 in 10.0 mi WNW 8.1 mph - N/A   Clear
9:15 AM 21.2 °F 11.7 °F 17.6 °F 86% 30.09 in 10.0 mi WNW 8.1 mph - N/A   Mostly Cloudy
9:35 AM 23.0 °F 13.9 °F 17.6 °F 80% 30.10 in 10.0 mi WNW 8.1 mph - N/A   Overcast
10:15 AM 23.0 °F 9.6 °F 17.6 °F 80% 30.12 in 10.0 mi West 16.1 mph 20.7 mph N/A   Scattered Clouds
10:35 AM 23.0 °F 9.6 °F 17.6 °F 80% 30.13 in 10.0 mi West 16.1 mph 20.7 mph N/A   Clear
10:55 AM 23.0 °F 11.7 °F 17.6 °F 80% 30.14 in 10.0 mi WNW 11.5 mph - N/A   Clear
11:15 AM 24.8 °F 16.1 °F 17.6 °F 74% 30.14 in 10.0 mi WNW 8.1 mph 17.3 mph N/A   Mostly Cloudy
11:35 AM 26.6 °F 16.2 °F 19.4 °F 74% 30.13 in 10.0 mi WNW 11.5 mph - N/A   Mostly Cloudy
11:55 AM 26.6 °F 18.2 °F 19.4 °F 74% 30.14 in 10.0 mi NW 8.1 mph - N/A   Mostly Cloudy
12:15 PM 26.6 °F 17.5 °F 19.4 °F 74% 30.14 in 10.0 mi NW 9.2 mph - N/A   Mostly Cloudy
12:35 PM 26.6 °F 17.5 °F 19.4 °F 74% 30.14 in 10.0 mi WNW 9.2 mph 16.1 mph N/A   Overcast
12:55 PM 26.6 °F 16.8 °F 19.4 °F 74% 30.15 in 10.0 mi WNW 10.4 mph - N/A   Mostly Cloudy
1:15 PM 26.6 °F 17.5 °F 19.4 °F 74% 30.14 in 10.0 mi West 9.2 mph - N/A   Scattered Clouds
1:35 PM 26.6 °F 20.0 °F 19.4 °F 74% 30.14 in 10.0 mi West 5.8 mph - N/A   Clear
1:55 PM 26.6 °F 17.5 °F 17.6 °F 69% 30.14 in 10.0 mi West 9.2 mph - N/A   Clear
2:15 PM 26.6 °F 16.2 °F 17.6 °F 69% 30.16 in 10.0 mi West 11.5 mph - N/A   Clear
2:35 PM 26.6 °F 17.5 °F 17.6 °F 69% 30.17 in 10.0 mi West 9.2 mph - N/A   Clear
2:55 PM 26.6 °F 18.2 °F 17.6 °F 69% 30.18 in 10.0 mi West 8.1 mph - N/A   Clear
3:15 PM 26.6 °F 17.5 °F 17.6 °F 69% 30.19 in 10.0 mi West 9.2 mph - N/A   Clear
3:35 PM 26.6 °F 19.1 °F 15.8 °F 64% 30.19 in 10.0 mi West 6.9 mph - N/A   Clear
3:55 PM 24.8 °F 15.3 °F 15.8 °F 69% 30.20 in 10.0 mi West 9.2 mph - N/A   Clear
4:15 PM 24.8 °F 14.6 °F 15.8 °F 69% 30.21 in 10.0 mi West 10.4 mph - N/A   Clear
4:35 PM 23.0 °F 14.7 °F 15.8 °F 74% 30.21 in 10.0 mi WSW 6.9 mph - N/A   Clear
4:55 PM 23.0 °F 15.8 °F 14.0 °F 68% 30.21 in 10.0 mi WSW 5.8 mph - N/A   Clear
5:15 PM 21.2 °F 14.9 °F 14.0 °F 74% 30.21 in 10.0 mi WSW 4.6 mph - N/A   Clear
5:35 PM 21.2 °F - 14.0 °F 74% 30.22 in 10.0 mi Calm Calm - N/A   Clear
5:55 PM 21.2 °F 13.6 °F 14.0 °F 74% 30.23 in 10.0 mi WSW 5.8 mph - N/A   Clear
6:15 PM 21.2 °F 13.6 °F 12.2 °F 68% 30.23 in 10.0 mi WSW 5.8 mph - N/A   Clear
6:35 PM 19.4 °F 14.3 °F 12.2 °F 74% 30.23 in 10.0 mi SW 3.5 mph - N/A   Clear
7:15 PM 19.4 °F 10.4 °F 10.4 °F 68% 30.24 in 10.0 mi WSW 6.9 mph - N/A   Clear
7:35 PM 19.4 °F 12.8 °F 10.4 °F 68% 30.23 in 10.0 mi WSW 4.6 mph - N/A   Clear
7:55 PM 19.4 °F 14.3 °F 10.4 °F 68% 30.24 in 10.0 mi WSW 3.5 mph - N/A   Clear
8:15 PM 19.4 °F 12.8 °F 10.4 °F 68% 30.24 in 10.0 mi SSW 4.6 mph - N/A   Clear
8:35 PM 19.4 °F 12.8 °F 10.4 °F 68% 30.24 in 10.0 mi SW 4.6 mph - N/A   Clear
8:55 PM 17.6 °F 9.3 °F 12.2 °F 79% 30.24 in 10.0 mi SW 5.8 mph - N/A   Clear
9:15 PM 17.6 °F 10.7 °F 12.2 °F 79% 30.23 in 10.0 mi WSW 4.6 mph - N/A   Clear
9:35 PM 19.4 °F 14.3 °F 12.2 °F 74% 30.24 in 10.0 mi SW 3.5 mph - N/A   Clear
9:55 PM 17.6 °F 10.7 °F 10.4 °F 73% 30.24 in 10.0 mi SW 4.6 mph - N/A   Clear
10:15 PM 17.6 °F 10.7 °F 10.4 °F 73% 30.24 in 10.0 mi SSW 4.6 mph - N/A   Clear
10:55 PM 14.0 °F 6.5 °F 10.4 °F 86% 30.24 in 10.0 mi South 4.6 mph - N/A   Clear
11:15 PM 14.0 °F 6.5 °F 10.4 °F 86% 30.23 in 10.0 mi South 4.6 mph - N/A   Clear